Location: Bannatyne
(13.0833°N, 59.5333°W)
Time: 18:43:48
(UTC+00:00)

Vanguard 3 - Pass Details

Date: 26 January 2020
Orbit: 508 x 3263 km, 33.3° (Epoch: 25 February)

Event Time Altitude Azimuth Distance (km) Brightness Sun altitude
Rises 23:09:22 0° 285° (WNW) 7,172 13.0 -17.8°
Reaches altitude 10° 23:15:04 10° 294° (WNW) 6,201 12.3 -19.2°
Maximum altitude 23:32:17 36° 354° (N) 3,970 10.5 -23.2°
Enters shadow 23:40:22 24° 39° (NE) 4,103 10.2 -25.1°
Drops below altitude 10° 23:45:13 10° 57° (ENE) 4,700 - -26.3°
Sets 23:48:48 0° 66° (ENE) 5,336 - -27.1°
